Tracking 19181 objects as of 17-Jun-2018
HD Live streaming from Space Station
objects crossing your sky now

FENGYUN 1C DEB

Track FENGYUN 1C DEB now!
10-day predictions


NORAD ID: 36199
Int'l Code: 1999-025DTY
Perigee: 742.1 km
Apogee: 880.5 km
Inclination: 98.6 °
Period: 101.0 minutes
Semi major axis: 7182 km
RCS: 0.0122 m2 (small)
Launch date: May 10, 1999
Source: People's Republic of China (PRC)
Launch site: Taiyaun Space Center, China (TSC)

Note: This is SATELLITE DEBRIS
aabbcc
Your satellite tracking list
Your tracking list is empty




NASA's NSSDC Master Catalog

Two Line Element Set (TLE):
1 36199U 99025DTY 18166.98295267 +.00000149 +00000-0 +76143-4 0  9992
2 36199 098.6110 241.0031 0096304 185.1588 174.8609 14.26287222259416
Source of the keplerian elements: AFSPC